Hourly Data Report for October 23, 2016

All times are specified in Local Standard Time (LST). Add 1 hour to adjust for Daylight Saving Time where and when it is observed.

GRISE FIORD CLIMATE
NUNAVUT

76°25'22.040" N
82°54'08.020" W
44.50 m
2402351
71971
NGC

Download Data

Hourly Data (October 2016)
Hourly Data Report for October 23, 2016
Temp Definition
°C
Dew Point Temp Definition
°C
Rel Hum Definition
%
Wind Dir Definition
10's deg

Wind Spd Definition
km/h
Visibility Definition
km
Stn Press Definition
kPa
Hmdx Definition


Wind Chill Definition


Weather Definition


TIME
00:00 -9.6 -13.0 76 29 12   102.16   -15 LegendNANA
01:00 -10.4 -12.7 83 2 2   102.21   -12 LegendNANA
02:00 -9.9 -12.5 81 28 13   102.22   -16 LegendNANA
03:00 -9.4 -12.3 79 30 13   102.25   -15 LegendNANA
04:00 -9.5 -11.7 84 26 10   102.30   -15 LegendNANA
05:00 -9.2 -12.0 80 7 2   102.30   -10 LegendNANA
06:00 -9.2 -11.9 81 31 5   102.32   -12 LegendNANA
07:00 -9.2 -11.8 81 31 4   102.31   -11 LegendNANA
08:00 -9.4 -10.9 89 27 5   102.32   -12 LegendNANA
09:00 -9.1 -11.2 85 35 3   102.35   -11 LegendNANA
10:00 -9.8 -12.0 84 7 3   102.37   -12 LegendNANA
11:00 -8.7 -11.4 81 18 2   102.40   -10 LegendNANA
12:00 -8.8 -12.0 78 32 8   102.43   -13 LegendNANA
13:00 -8.8 -11.7 80 31 11   102.43   -14 LegendNANA
14:00 -9.4 -12.3 79 32 9   102.44   -14 LegendNANA
15:00 -8.3 -11.5 77 31 13   102.48   -14 LegendNANA
16:00 -9.3 -12.1 80 34 6   102.50   -13 LegendNANA
17:00 -10.2 -12.7 82 2 7   102.53   -14 LegendNANA
18:00 -9.9 -12.8 79 4 8   102.53   -14 LegendNANA
19:00 -9.0 -12.3 77 2 9   102.53   -14 LegendNANA
20:00 -9.0 -12.6 75 1 5   102.50   -12 LegendNANA
21:00 -9.7 -12.6 80 31 3   102.47   -11 LegendNANA
22:00 -10.1 -13.1 79 34 9   102.44   -15 LegendNANA
23:00 -12.4 -15.8 75 35 5   102.41   -16 LegendNANA

Notes on Data Quality.

Legend

  • E = Estimated
  • M = Missing
  • NA = Not Available
  • ‡ = Partner data that is not subject to review by the National Climate Archives
Date modified: